Tracking 25612 objects as of 19-May-2022
HD Live streaming from Space Station
objects crossing your sky now

SL-8 R/B

Track SL-8 R/B now!
10-day predictions


NORAD ID: 10918
Int'l Code: 1978-053B
Perigee: 958.0 km
Apogee: 1,003.1 km
Inclination: 82.9 °
Period: 104.6 minutes
Semi major axis: 7351 km
RCS: 5.0251 m2 (large)
Launch date: May 23, 1978
Source: Commonwealth of Independent States (former USSR) (CIS)
Launch site: PLESETSK MISSILE AND SPACE COMPLEX (PKMTR)

Note: This is a ROCKET BODY
aabbcc
Your satellite tracking list
Your tracking list is empty




NASA's NSSDC Master Catalog

Two Line Element Set (TLE):
1 10918U 78053B   22138.30799319  .00000143  00000-0  12884-3 0  9993
2 10918  82.9165  66.8994 0030659  22.9909  87.5989 13.77324933209827
Source of the keplerian elements: AFSPC